EW1948 Weather Reports


Display with metric or nautical units.
time (UTC)temp
F
wind
direction
speed
MPH
gust
MPH
rain 1hr
in
rain 24hr
in
rain mn
in
humidity
%
barometer
mb
20260901022535 84 158 2.0 3.0 0.00 0.00 0.00 66 1016.5
20260901021515 85 180 2.0 3.0 0.00 0.00 0.00 65 1016.4
20260901020515 85 203 1.0 3.0 0.00 0.00 0.00 65 1016.5
20260901015515 85 158 2.0 4.0 0.00 0.00 0.00 64 1016.3
20260901014535 86 135 1.0 3.0 0.00 0.00 0.00 64 1016.1
20260901013535 86 0.0 0.0 0.00 0.00 0.00 64 1016.0
20260901012515 87 0.0 0.0 0.00 0.00 0.00 63 1015.9
20260901011515 87 0.0 2.0 0.00 0.00 0.00 62 1015.7
20260901010515 88 135 1.0 3.0 0.00 0.00 0.00 60 1015.6
20260901005515 89 135 1.0 2.0 0.00 0.00 0.00 59 1015.6
20260901004515 90 135 1.0 3.0 0.00 0.00 0.00 57 1015.5
20260901003515 90 135 1.0 2.0 0.00 0.00 0.00 55 1015.4
20260901002515 91 135 1.0 3.0 0.00 0.00 0.00 54 1015.3
20260901001515 92 203 1.0 2.0 0.00 0.00 0.00 53 1015.4
20260901000535 93 203 1.0 3.0 0.00 0.00 0.00 51 1015.4
20260831235515 94 158 2.0 4.0 0.00 0.00 0.00 50 1015.4
20260831234515 96 225 2.0 4.0 0.00 0.00 0.00 45 1015.5
20260831233515 96 158 1.0 3.0 0.00 0.00 0.00 43 1015.5
20260831232515 97 203 3.0 7.0 0.00 0.00 0.00 42 1015.5
20260831231615 97 225 2.0 5.0 0.00 0.00 0.00 43 1015.4
20260831230515 98 158 2.0 5.0 0.00 0.00 0.00 40 1015.4
20260831225515 98 180 2.0 4.0 0.00 0.00 0.00 40 1015.3
20260831224514 98 180 3.0 8.0 0.00 0.00 0.00 39 1015.2
20260831223514 98 135 2.0 10.0 0.00 0.00 0.00 39 1015.3
20260831222514 98 158 3.0 6.0 0.00 0.00 0.00 38 1015.3
20260831221515 99 113 4.0 8.0 0.00 0.00 0.00 38 1015.3
20260831220515 98 270 2.0 6.0 0.00 0.00 0.00 38 1015.4
20260831215515 97 225 3.0 7.0 0.00 0.00 0.00 41 1015.5
20260831214515 98 180 3.0 7.0 0.00 0.00 0.00 41 1015.4
20260831213515 98 180 3.0 6.0 0.00 0.00 0.00 41 1015.4
20260831212534 98 113 4.0 8.0 0.00 0.00 0.00 41 1015.4
20260831211514 98 203 4.0 7.0 0.00 0.00 0.00 40 1015.4
20260831210514 98 90 4.0 7.0 0.00 0.00 0.00 41 1015.5
20260831205514 98 158 4.0 9.0 0.00 0.00 0.00 40 1015.6
20260831204534 98 158 3.0 9.0 0.00 0.00 0.00 38 1015.6
20260831203514 99 270 2.0 4.0 0.00 0.00 0.00 38 1015.7
20260831202515 99 293 3.0 7.0 0.00 0.00 0.00 37 1015.8
20260831201514 99 293 2.0 6.0 0.00 0.00 0.00 39 1016.0
20260831200514 97 225 2.0 7.0 0.00 0.00 0.00 40 1016.0
20260831195555 97 113 2.0 8.0 0.00 0.00 0.00 39 1016.1
20260831194514 97 158 3.0 7.0 0.00 0.00 0.00 39 1016.2
20260831193514 98 113 3.0 8.0 0.00 0.00 0.00 40 1016.3
20260831192514 98 0 2.0 6.0 0.00 0.00 0.00 42 1016.4
20260831191514 96 158 4.0 10.0 0.00 0.00 0.00 42 1016.5
20260831190514 97 225 5.0 12.0 0.00 0.00 0.00 42 1016.7
20260831185514 96 113 4.0 9.0 0.00 0.00 0.00 44 1016.7
20260831184514 96 90 3.0 8.0 0.00 0.00 0.00 43 1016.9
20260831183514 95 203 3.0 9.0 0.00 0.00 0.00 44 1017.0
20260831182534 95 180 4.0 8.0 0.00 0.00 0.00 44 1017.1
20260831181514 96 158 2.0 5.0 0.00 0.00 0.00 43 1017.3
20260831180514 95 338 3.0 9.0 0.00 0.00 0.00 45 1017.4
20260831175535 94 270 4.0 8.0 0.00 0.00 0.00 45 1017.6
20260831174514 94 225 4.0 8.0 0.00 0.00 0.00 45 1017.6
20260831173514 93 203 3.0 6.0 0.00 0.00 0.00 45 1017.8
20260831172514 93 180 5.0 9.0 0.00 0.00 0.00 46 1017.8
20260831171514 93 180 3.0 9.0 0.00 0.00 0.00 47 1017.9
20260831170514 92 270 3.0 7.0 0.00 0.00 0.00 49 1018.0
20260831165514 91 315 3.0 6.0 0.00 0.00 0.00 49 1018.1
20260831164514 91 293 3.0 8.0 0.00 0.00 0.00 50 1018.3
20260831163514 90 225 4.0 8.0 0.00 0.00 0.00 50 1018.4
20260831162514 90 135 3.0 6.0 0.00 0.00 0.00 51 1018.5
20260831161514 89 180 3.0 6.0 0.00 0.00 0.00 51 1018.4
20260831160535 89 180 2.0 8.0 0.00 0.00 0.00 52 1018.4
20260831155514 88 180 3.0 7.0 0.00 0.00 0.00 52 1018.3
20260831154514 88 180 3.0 6.0 0.00 0.00 0.00 53 1018.3
20260831153514 87 225 3.0 8.0 0.00 0.00 0.00 54 1018.3
20260831152514 86 248 3.0 6.0 0.00 0.00 0.00 55 1018.3
20260831151514 85 203 2.0 6.0 0.00 0.00 0.00 58 1018.3
20260831150514 84 180 2.0 5.0 0.00 0.00 0.00 62 1018.3
20260831145514 82 135 2.0 5.0 0.00 0.00 0.00 63 1018.2
20260831144514 82 135 3.0 7.0 0.00 0.00 0.00 64 1018.2
20260831143534 81 135 2.0 6.0 0.00 0.00 0.00 66 1018.1
20260831142514 80 180 2.0 5.0 0.00 0.00 0.00 68 1018.1
20260831141514 79 135 2.0 4.0 0.00 0.00 0.00 69 1018.2
20260831140514 78 158 2.0 5.0 0.00 0.00 0.00 70 1018.1
20260831135514 77 158 2.0 5.0 0.00 0.00 0.00 71 1018.0
20260831134514 77 135 2.0 5.0 0.00 0.00 0.00 72 1018.0
20260831133514 76 180 1.0 3.0 0.00 0.00 0.00 73 1018.0
20260831132516 75 158 2.0 4.0 0.00 0.00 0.00 74 1018.0
20260831131516 75 135 2.0 4.0 0.00 0.00 0.00 75 1017.9
20260831130516 74 135 2.0 3.0 0.00 0.00 0.00 76 1017.8
20260831125515 73 135 2.0 4.0 0.00 0.00 0.00 78 1017.8
20260831124515 72 135 1.0 3.0 0.00 0.00 0.00 80 1017.7
20260831123516 71 135 1.0 3.0 0.00 0.00 0.00 83 1017.6
20260831122516 70 135 1.0 3.0 0.00 0.00 0.00 85 1017.4
20260831121516 70 135 1.0 2.0 0.00 0.00 0.00 86 1017.3
20260831120516 69 0.0 0.0 0.00 0.00 0.00 85 1017.2
20260831115515 70 0.0 0.0 0.00 0.00 0.00 85 1017.1
20260831114515 70 0.0 1.0 0.00 0.00 0.00 85 1017.1
20260831113536 70 0.0 0.0 0.00 0.00 0.00 84 1017.1
20260831112515 70 0.0 1.0 0.00 0.00 0.00 84 1017.0
20260831111515 70 0.0 2.0 0.00 0.00 0.00 84 1017.2
20260831110515 70 135 1.0 3.0 0.00 0.00 0.00 84 1017.1
20260831105516 70 0.0 2.0 0.00 0.00 0.00 83 1017.1
20260831104515 70 0.0 0.0 0.00 0.00 0.00 83 1017.1
20260831103515 70 0.0 1.0 0.00 0.00 0.00 83 1017.1
20260831102515 70 0.0 1.0 0.00 0.00 0.00 83 1017.1
20260831101515 70 0.0 0.0 0.00 0.00 0.00 84 1017.1
20260831100515 70 0.0 0.0 0.00 0.00 0.00 84 1017.0
20260831095515 69 0.0 0.0 0.00 0.00 0.00 84 1017.0
20260831094516 70 0.0 0.0 0.00 0.00 0.00 84 1017.1
20260831093555 70 0.0 0.0 0.00 0.00 0.00 84 1017.1
20260831092535 70 0.0 0.0 0.00 0.00 0.00 83 1017.0
20260831091536 70 0.0 0.0 0.00 0.00 0.00 83 1016.9
20260831090515 71 0.0 0.0 0.00 0.00 0.00 82 1016.8
20260831085515 71 0.0 0.0 0.00 0.00 0.00 82 1016.7
20260831084536 71 0.0 0.0 0.00 0.00 0.00 82 1016.6
20260831083515 71 0.0 0.0 0.00 0.00 0.00 81 1016.4
20260831082515 71 0.0 0.0 0.00 0.00 0.00 81 1016.4
20260831081515 71 0.0 1.0 0.00 0.00 0.00 80 1016.3
20260831080515 71 0.0 0.0 0.00 0.00 0.00 80 1016.2
20260831075515 71 0.0 0.0 0.00 0.00 0.00 80 1016.3
20260831074515 71 0.0 0.0 0.00 0.00 0.00 80 1016.2
20260831073515 71 0.0 0.0 0.00 0.00 0.00 81 1016.2
20260831072535 71 0.0 1.0 0.00 0.00 0.00 81 1016.4
20260831071515 71 0.0 0.0 0.00 0.00 0.00 83 1016.4
20260831070515 71 0.0 0.0 0.00 0.00 0.00 84 1016.4
20260831065515 71 0.0 0.0 0.00 0.00 0.00 84 1016.5
20260831064515 71 0.0 0.0 0.00 0.00 0.00 83 1016.6
20260831063515 71 0.0 0.0 0.00 0.00 0.00 83 1016.7
20260831062535 72 0.0 0.0 0.00 0.00 0.00 82 1016.8
20260831061515 72 0.0 0.0 0.00 0.00 0.00 81 1016.9
20260831060515 72 0.0 0.0 0.00 0.00 0.00 80 1016.8
20260831055515 73 0.0 0.0 0.00 0.00 0.00 80 1016.8
20260831054535 73 0.0 0.0 0.00 0.00 0.00 78 1016.8
20260831053515 73 0.0 0.0 0.00 0.00 0.00 77 1016.7
20260831052515 74 0.0 0.0 0.00 0.00 0.00 76 1016.8
20260831051515 74 0.0 2.0 0.00 0.00 0.00 76 1016.6
20260831050515 74 113 1.0 3.0 0.00 0.00 0.00 76 1016.6
20260831045515 74 0.0 1.0 0.00 0.00 0.00 78 1016.6
20260831044515 74 0.0 0.0 0.00 0.00 0.00 78 1016.5
20260831043515 74 0.0 0.0 0.00 0.00 0.00 78 1016.5
20260831042515 74 0.0 0.0 0.00 0.00 0.00 78 1016.5
20260831041515 74 0.0 0.0 0.00 0.00 0.00 77 1016.5
20260831040516 74 0.0 0.0 0.00 0.00 0.00 76 1016.4
20260831035515 74 0.0 0.0 0.00 0.00 0.00 76 1016.5
20260831034515 74 0.0 0.0 0.00 0.00 0.00 75 1016.3
20260831033515 75 0.0 0.0 0.00 0.00 0.00 75 1016.3
20260831032515 75 0.0 0.0 0.00 0.00 0.00 74 1016.3
20260831031535 75 0.0 0.0 0.00 0.00 0.00 74 1016.3
20260831030515 76 0.0 0.0 0.00 0.00 0.00 72 1016.2
20260831025515 76 0.0 0.0 0.00 0.00 0.00 71 1016.2
20260831024515 77 0.0 0.0 0.00 0.00 0.00 69 1016.2
20260831023516 79 0.0 0.0 0.00 0.00 0.00 66 1016.3